| time (UTC) | temp F | wind direction | speed MPH | gust MPH | rain 1hr in | rain 24hr in | rain mn in | humidity % | barometer mb |
| 20260504045803 | 59 | 38 | 7.0 | 8.0 | 0.00 | 0.00 | 0.00 | 89 | 1019.0 |
| 20260504044802 | 57 | 38 | 7.0 | 8.0 | 0.00 | 0.00 | 0.00 | 89 | 1019.0 |
| 20260504043802 | 61 | 42 | 5.0 | 5.0 | 0.00 | 0.00 | 0.00 | 91 | 1019.0 |
| 20260504042801 | 59 | 42 | 5.0 | 5.0 | 0.00 | 0.00 | 0.00 | 91 | 1019.0 |
| 20260504041801 | 57 | 42 | 6.0 | 6.0 | 0.00 | 0.00 | 0.00 | 91 | 1019.0 |
| 20260504040800 | 62 | 42 | 5.0 | 5.0 | 0.00 | 0.00 | 0.00 | 88 | 1019.0 |
| 20260504035759 | 60 | 42 | 5.0 | 5.0 | 0.00 | 0.00 | 0.00 | 88 | 1019.0 |
| 20260504034759 | 58 | 42 | 5.0 | 5.0 | 0.00 | 0.00 | 0.00 | 88 | 1019.0 |
| 20260504033758 | 56 | 42 | 6.0 | 6.0 | 0.00 | 0.00 | 0.00 | 88 | 1019.0 |
| 20260504032757 | 62 | 45 | 5.0 | 5.0 | 0.00 | 0.00 | 0.00 | 89 | 1018.0 |
| 20260504031757 | 60 | 45 | 5.0 | 5.0 | 0.00 | 0.00 | 0.00 | 89 | 1018.0 |
| 20260504030756 | 58 | 45 | 5.0 | 5.0 | 0.00 | 0.00 | 0.00 | 89 | 1018.0 |
| 20260504025756 | 56 | 45 | 5.0 | 5.0 | 0.00 | 0.00 | 0.00 | 89 | 1018.0 |
| 20260504024755 | 60 | 51 | 5.0 | 4.0 | 0.00 | 0.00 | 0.00 | 92 | 1018.0 |
| 20260504023754 | 58 | 51 | 5.0 | 4.0 | 0.00 | 0.00 | 0.00 | 92 | 1018.0 |
| 20260504022754 | 56 | 51 | 5.0 | 4.0 | 0.00 | 0.00 | 0.00 | 92 | 1018.0 |
| 20260504021753 | 60 | 51 | 5.0 | 4.0 | 0.00 | 0.00 | 0.00 | 90 | 1018.0 |
| 20260504020752 | 58 | 51 | 5.0 | 4.0 | 0.00 | 0.00 | 0.00 | 90 | 1018.0 |
| 20260504015752 | 56 | 51 | 5.0 | 4.0 | 0.00 | 0.00 | 0.00 | 90 | 1018.0 |
| 20260504014751 | 60 | 41 | 5.0 | 5.0 | 0.00 | 0.00 | 0.00 | 91 | 1018.0 |
| 20260504013750 | 58 | 41 | 5.0 | 5.0 | 0.00 | 0.00 | 0.00 | 91 | 1018.0 |
| 20260504012750 | 56 | 41 | 5.0 | 5.0 | 0.00 | 0.00 | 0.00 | 91 | 1017.0 |
| 20260504011749 | 63 | 41 | 5.0 | 5.0 | 0.00 | 0.00 | 0.00 | 89 | 1017.0 |
| 20260504010748 | 61 | 41 | 5.0 | 5.0 | 0.00 | 0.00 | 0.00 | 89 | 1017.0 |
| 20260504005748 | 63 | 41 | 5.0 | 5.0 | 0.00 | 0.00 | 0.00 | 87 | 1017.0 |
| 20260504004747 | 61 | 41 | 5.0 | 5.0 | 0.00 | 0.00 | 0.00 | 87 | 1017.0 |
| 20260504003747 | 65 | 52 | 4.0 | 5.0 | 0.00 | 0.00 | 0.00 | 87 | 1017.0 |
| 20260504002746 | 63 | 52 | 4.0 | 5.0 | 0.00 | 0.00 | 0.00 | 87 | 1015.0 |
| 20260504001745 | 63 | 52 | 4.0 | 5.0 | 0.00 | 0.00 | 0.00 | 87 | 1015.0 |
| 20260504000745 | 61 | 52 | 4.0 | 6.0 | 0.01 | 0.00 | 0.00 | 87 | 1015.0 |
| 20260503235744 | 64 | 52 | 4.0 | 5.0 | 0.00 | 0.00 | 0.00 | 84 | 1015.0 |
| 20260503234743 | 62 | 52 | 4.0 | 6.0 | 0.01 | 0.00 | 0.00 | 84 | 1015.0 |
| 20260503233743 | 66 | 100 | 1.0 | 3.0 | 0.01 | 0.00 | 0.00 | 83 | 1015.0 |
| 20260503232742 | 64 | 100 | 1.0 | 3.0 | 0.00 | 0.00 | 0.00 | 83 | 1015.0 |
| 20260503231742 | 62 | 100 | 1.0 | 3.0 | 0.00 | 0.00 | 0.00 | 83 | 1015.0 |
| 20260503230741 | 66 | 100 | 1.0 | 3.0 | 0.00 | 0.00 | 0.00 | 81 | 1015.0 |
| 20260503225740 | 64 | 100 | 1.0 | 3.0 | 0.00 | 0.00 | 0.00 | 81 | 1015.0 |
| 20260503224739 | 62 | 100 | 1.0 | 3.0 | 0.00 | 0.00 | 0.00 | 81 | 1015.0 |
| 20260503223739 | 65 | 206 | 1.0 | 3.0 | 0.00 | 0.00 | 0.00 | 77 | 1015.0 |
| 20260503222738 | 63 | 206 | 2.0 | 3.0 | 0.01 | 0.00 | 0.00 | 77 | 1015.0 |
| 20260503221738 | 67 | 206 | 1.0 | 3.0 | 0.01 | 0.00 | 0.00 | 76 | 1015.0 |
| 20260503220737 | 65 | 206 | 2.0 | 3.0 | 0.02 | 0.00 | 0.00 | 76 | 1015.0 |
| 20260503215736 | 66 | 206 | 2.0 | 3.0 | 0.04 | 0.00 | 0.00 | 76 | 1015.0 |
| 20260503214736 | 67 | 206 | 1.0 | 3.0 | 0.06 | 0.00 | 0.00 | 76 | 1015.0 |
| 20260503213735 | 65 | 206 | 2.0 | 3.0 | 0.04 | 0.00 | 0.00 | 76 | 1015.0 |
| 20260503212734 | 70 | 236 | 4.0 | 3.0 | 0.05 | 0.00 | 0.00 | 74 | 1015.0 |
| 20260503211734 | 68 | 236 | 4.0 | 3.0 | 0.06 | 0.00 | 0.00 | 74 | 1015.0 |
| 20260503210733 | 68 | 236 | 4.0 | 3.0 | 0.06 | 0.00 | 0.00 | 74 | 1015.0 |
| 20260503205733 | 66 | 236 | 4.0 | 3.0 | 0.05 | 0.00 | 0.00 | 74 | 1015.0 |
| 20260503204732 | 69 | 236 | 4.0 | 3.0 | 0.04 | 0.00 | 0.00 | 74 | 1015.0 |
| 20260503203731 | 67 | 236 | 4.0 | 3.0 | 0.04 | 0.00 | 0.00 | 74 | 1015.0 |
| 20260503202731 | 73 | 214 | 6.0 | 3.0 | 0.00 | 0.00 | 0.00 | 72 | 1016.0 |
| 20260503201730 | 72 | 214 | 6.0 | 3.0 | 0.00 | 0.00 | 0.00 | 72 | 1016.0 |
| 20260503200729 | 72 | 214 | 6.0 | 3.0 | 0.00 | 0.00 | 0.00 | 71 | 1016.0 |
| 20260503195729 | 72 | 214 | 6.0 | 3.0 | 0.00 | 0.00 | 0.00 | 71 | 1016.0 |
| 20260503194728 | 72 | 214 | 6.0 | 3.0 | 0.00 | 0.00 | 0.00 | 71 | 1016.0 |
| 20260503193727 | 72 | 214 | 6.0 | 3.0 | 0.01 | 0.00 | 0.00 | 70 | 1016.0 |
| 20260503192727 | 72 | 211 | 6.0 | 4.0 | 0.01 | 0.00 | 0.00 | 69 | 1016.0 |
| 20260503191726 | 72 | 211 | 6.0 | 4.0 | 0.01 | 0.00 | 0.00 | 69 | 1016.0 |
| 20260503190726 | 72 | 211 | 6.0 | 4.0 | 0.01 | 0.00 | 0.00 | 69 | 1016.0 |
| 20260503185725 | 73 | 211 | 5.0 | 4.0 | 0.00 | 0.00 | 0.00 | 68 | 1016.0 |
| 20260503184724 | 71 | 211 | 6.0 | 4.0 | 0.01 | 0.00 | 0.00 | 68 | 1016.0 |
| 20260503183724 | 75 | 226 | 5.0 | 4.0 | 0.01 | 0.00 | 0.00 | 67 | 1016.0 |
| 20260503182723 | 73 | 226 | 5.0 | 4.0 | 0.00 | 0.00 | 0.00 | 67 | 1017.0 |
| 20260503181722 | 71 | 226 | 5.0 | 4.0 | 0.00 | 0.00 | 0.00 | 67 | 1017.0 |
| 20260503180722 | 75 | 223 | 4.0 | 5.0 | 0.00 | 0.00 | 0.00 | 64 | 1017.0 |
| 20260503175721 | 73 | 223 | 4.0 | 5.0 | 0.00 | 0.00 | 0.00 | 64 | 1017.0 |
| 20260503174721 | 71 | 223 | 4.0 | 5.0 | 0.00 | 0.00 | 0.00 | 64 | 1017.0 |
| 20260503173720 | 69 | 223 | 4.0 | 5.0 | 0.00 | 0.00 | 0.00 | 64 | 1017.0 |
| 20260503172719 | 69 | 223 | 4.0 | 5.0 | 0.00 | 0.00 | 0.00 | 64 | 1017.0 |
| 20260503171719 | 73 | 223 | 4.0 | 5.0 | 0.00 | 0.00 | 0.00 | 63 | 1017.0 |
| 20260503170718 | 71 | 223 | 4.0 | 5.0 | 0.00 | 0.00 | 0.00 | 63 | 1017.0 |
| 20260503150710 | 67 | 196 | 1.0 | 4.0 | 0.00 | 0.00 | 0.00 | 71 | 1017.0 |
| 20260503130704 | 60 | 53 | 4.0 | 5.0 | 0.00 | 0.00 | 0.00 | 86 | 1018.0 |
| 20260503110655 | 56 | 42 | 9.0 | 11.0 | 0.00 | 0.00 | 0.00 | 91 | 1018.0 |
| 20260503080644 | 59 | 52 | 4.0 | 3.0 | 0.00 | 0.00 | 0.00 | 89 | 1018.0 |
| 20260503072641 | 59 | 46 | 5.0 | 5.0 | 0.00 | 0.00 | 0.00 | 89 | 1019.0 |
| 20260503071641 | 57 | 46 | 6.0 | 5.0 | 0.00 | 0.00 | 0.00 | 89 | 1019.0 |
| 20260503070640 | 59 | 46 | 5.0 | 5.0 | 0.00 | 0.00 | 0.00 | 89 | 1019.0 |
| 20260503054635 | 59 | 46 | 5.0 | 4.0 | 0.00 | 0.00 | 0.00 | 86 | 1019.0 |
| 20260503053634 | 59 | 46 | 5.0 | 4.0 | 0.00 | 0.00 | 0.00 | 86 | 1019.0 |